Location: Codford Saint Peter
(51.1597°N, 2.0531°W)
Time: 02:20:42
(UTC+00:00)

Cosmos 1536 Rocket - Pass Details

Date: 18 September 2020
Orbit: 606 x 632 km, 82.5° (Epoch: 30 October)

Event Time Altitude Azimuth Distance (km) Brightness Sun altitude
Rises 20:08:16 0° 347° (NNW) 2,915 7.6 -18.0°
Reaches altitude 10° 20:10:31 10° 344° (NNW) 2,008 6.8 -18.3°
Maximum altitude 20:14:55 65° 264° (W) 693 3.9 -18.9°
Enters shadow 20:18:28 16° 184° (S) 1,668 5.5 -19.4°
